User: anonymous   Login
Location: Caltech
(34.1382°N, 118.1253°W)
Time: 00:18:49
(UTC-07:00)
Language:

SL-16 R/B - Orbit

View from above orbital plane
View from above orbital plane
View from above satellite
View from above satellite

Ground track
Ground track

The orbit data is extracted from the following two-line orbital elements,

1 28353U 04021B   16212.87905144  .00000011  00000-0  30690-4 0  9992
2 28353  71.0001  32.2914 0006632 311.7349  48.3205 14.14185265626731
Epoch (UTC): 30 July 2016 21:05:50
Eccentricity: 0.0006632
inclination: 71.0001°
perigee height: 840 km
apogee height: 850 km
right ascension of ascending node: 32.2914°
argument of perigee: 311.7349°
revolutions per day: 14.14185265
mean anomaly at epoch: 48.3205°
orbit number at epoch: 62673

The dashed part of the orbit path shows where the satellite is in the earth's shadow,  

DLR